SCP
0 0 0 0 0 1 1 1 1 1 1 1 1 1 1 1 0 0 0 0 0 0 0 0 0 0 0 0 0 0 0 0 0 0 0 0 0 0 0 0 0 0 0
0 0 0 0 0 1 1 1 1 1 1 1 1 0 0 0 0 0 0 0 0 0 0 0 0 0 0 0 0 0 0 0 0 0 0 0 0 0 0 0 0 0 0
0 0 0 0 1 1 1 1 1 1 1 1 0 0 0 0 0 0 0 0 0 0 0 0 0 0 0 0 0 0 0 0 0 0 0 0 0 0 0 0 0 0 0
0 0 0 1 1 1 1 1 0 1 1 1 0 0 0 0 0 0 0 0 0 0 0 0 0 0 0 0 0 0 0 0 0 0 0 0 0 0 0 0 0 0 0
1 1 1 1 1 1 1 0 0 0 1 1 0 0 0 0 0 0 0 0 0 0 0 0 0 0 0 0 0 0 0 0 0 0 0 0 0 0 0 0 0 0 0
1 1 1 1 1 1 1 0 0 0 0 1 0 0 0 0 0 0 0 0 0 0 0 0 0 0 0 0 0 0 0 0 0 0 0 0 0 0 0 0 0 0 0
1 1 1 1 1 1 1 1 0 0 0 1 0 0 0 0 0 0 0 0 0 0 0 0 0 0 0 0 0 0 0 0 0 0 0 0 0 0 0 0 0 0 0
1 1 1 1 1 1 1 1 0 0 1 1 0 0 0 0 0 0 0 0 0 0 0 0 0 0 0 0 0 0 0 0 0 0 0 0 0 0 0 0 0 0 0
1 1 1 1 1 1 1 1 1 1 1 1 0 0 0 0 0 0 0 0 0 0 0 0 0 0 0 0 0 0 0 0 0 0 0 0 0 0 0 0 0 0 0
1 1 1 1 1 1 1 1 1 1 1 1 0 0 0 0 0 0 0 0 0 0 0 0 0 0 0 0 0 0 0 0 0 0 0 0 0 0 0 0 0 0 0
1 1 1 1 1 1 1 1 1 1 1 1 0 0 0 0 0 0 0 0 0 0 0 0 0 0 0 0 0 0 0 0 0 0 0 0 0 0 0 0 0 0 0
1 1 1 1 1 1 1 1 1 1 1 1 0 0 0 0 0 0 0 0 0 0 0 0 0 0 0 0 0 0 0 0 0 0 0 0 0 0 0 0 0 0 0
1 1 1 1 1 1 1 1 1 1 1 0 0 0 0 0 0 0 0 0 0 0 0 0 0 0 0 0 0 0 0 0 0 0 0 0 0 0 0 0 0 0 0
1 1 2 1 1 1 1 1 1 1 1 0 0 0 0 0 0 0 0 0 0 0 0 0 0 0 0 0 0 0 0 0 0 0 0 0 0 0 0 0 0 0 0
2 2 3 2 1 1 1 1 1 1 1 1 0 0 0 0 0 0 0 0 0 0 0 0 0 0 0 0 0 0 0 0 0 0 0 0 1 1 1 1 1 1 0
2 2 2 2 1 1 1 1 1 1 1 1 0 0 0 0 0 0 0 0 0 0 0 0 0 0 0 0 0 0 0 0 0 0 0 1 1 1 1 1 1 1 1
2 2 1 1 1 1 1 1 1 1 1 1 0 0 0 0 0 0 0 0 0 0 0 0 0 0 0 0 0 0 0 0 0 0 0 0 1 1 1 1 1 1 1
2 1 1 1 1 1 1 1 1 1 1 1 0 0 0 0 0 0 0 0 0 0 0 0 0 0 0 0 0 0 0 0 0 0 0 0 0 1 1 1 1 1 1
2 2 1 1 1 1 1 1 1 1 1 1 1 0 0 1 1 1 0 0 0 0 0 0 0 0 0 0 0 0 0 0 0 0 0 0 0 0 0 1 1 1 1
2 2 1 1 1 1 1 1 1 1 1 1 1 1 1 1 1 1 1 1 0 0 0 0 0 0 0 0 0 0 0 0 0 0 0 0 0 0 0 0 1 1 1
2 2 1 1 1 1 1 1 2 2 2 1 1 1 1 1 1 1 1 1 1 1 1 1 1 1 1 1 1 0 0 0 0 0 0 0 0 0 0 0 0 0 0
2 1 1 1 2 2 2 2 2 3 2 2 2 2 1 1 1 1 1 1 1 1 1 1 1 1 1 1 1 1 0 0 0 0 0 0 0 0 0 0 0 0 0
2 2 2 2 2 2 3 3 4 4 4 3 2 2 2 1 1 1 1 1 1 1 1 1 1 1 1 1 1 1 1 0 0 0 0 0 0 0 0 0 0 1 1
2 2 2 2 2 3 3 4 5 5 5 4 3 2 2 1 1 1 1 1 1 1 1 1 1 1 1 1 1 1 1 0 0 0 0 0 0 0 0 0 1 1 1
3 3 2 2 3 3 3 4 5 5 4 3 2 2 2 1 1 1 1 1 1 1 1 1 1 1 1 1 1 1 1 1 0 0 0 0 0 0 0 0 1 1 1
3 3 3 3 3 4 4 4 4 4 4 3 3 2 2 1 1 1 1 1 1 1 1 1 1 1 1 1 1 1 1 1 1 0 0 0 0 0 0 0 0 1 1
Wind_Speed
5 6 13 14 14 15 16 16 17 17 17 17 17 17 16 16 15 15 15 14 14 14 14 14 15 15 15 15 15 15 15 15 15 15 16 15 15 15 15 16 15 12 16
9 8 13 14 14 15 15 16 16 16 16 16 16 16 15 15 14 14 14 14 14 14 15 15 15 15 15 15 15 15 15 15 15 15 15 14 15 15 15 15 14 11 15
11 8 11 14 14 14 15 15 15 15 15 15 15 15 14 14 14 14 13 14 14 14 14 14 15 15 14 15 15 15 14 14 14 15 14 9 11 14 14 15 15 15 14
11 8 10 14 14 14 14 14 14 15 14 14 14 14 13 13 13 13 13 13 14 14 14 14 15 14 14 14 14 14 14 14 14 14 8 8 8 13 14 14 14 14 14
9 7 10 15 14 14 14 13 14 14 14 13 13 13 13 13 12 12 12 13 13 13 13 14 14 14 14 13 13 13 13 14 14 11 7 7 7 12 13 13 13 13 13
8 7 9 15 14 14 14 13 13 13 13 12 12 12 12 12 12 12 12 12 12 12 13 13 13 13 13 12 12 12 13 13 11 8 7 7 6 11 13 13 12 12 12
8 6 8 15 14 14 13 13 13 12 12 12 12 11 11 11 11 11 11 11 11 11 12 12 12 12 12 12 12 11 12 12 8 7 6 6 6 10 12 12 12 11 11
9 7 7 14 14 14 13 13 12 12 11 11 11 11 10 10 10 10 10 11 11 11 11 11 11 11 11 10 10 10 11 11 9 8 6 5 8 10 11 11 10 10 10
7 6 5 7 9 13 13 12 12 12 11 11 11 10 10 10 10 10 9 10 10 10 10 10 10 10 9 9 9 10 11 11 7 6 6 4 8 10 11 10 10 10 10
6 5 5 5 5 5 7 12 12 12 11 11 10 10 10 9 9 9 8 8 9 9 9 10 9 8 8 8 8 9 10 9 6 6 4 5 8 10 10 10 10 10 9
8 5 4 5 5 4 5 8 9 11 10 9 8 10 7 4 4 5 6 7 8 8 8 8 8 7 7 6 7 9 8 4 5 4 3 6 9 9 10 10 9 9 9
11 8 5 5 5 5 5 4 3 3 4 4 3 4 3 3 2 4 4 7 7 7 7 7 6 6 5 3 4 6 3 5 4 3 4 8 8 9 9 9 9 9 9
10 10 7 5 5 4 3 3 2 2 2 3 4 4 3 2 2 2 1 2 2 3 3 3 3 3 3 2 2 2 3 3 3 3 4 9 8 9 9 9 9 9 9
9 9 7 7 5 4 3 3 3 2 2 2 3 4 3 2 2 1 1 1 2 2 2 2 1 2 2 2 2 3 3 3 3 2 4 9 8 9 9 9 9 9 9
11 10 9 8 7 5 4 3 4 3 3 3 3 3 4 3 2 2 1 1 1 1 2 1 1 2 2 1 2 3 4 4 4 4 3 9 10 9 10 10 10 9 9
11 10 9 9 8 6 5 4 4 4 3 3 3 4 4 3 3 2 2 2 1 1 1 2 1 1 1 1 2 3 4 4 4 4 4 6 10 10 10 11 11 10 10
11 10 10 10 8 8 7 6 4 4 4 3 3 4 5 4 4 3 3 3 2 2 2 2 1 1 1 1 2 2 3 4 4 5 5 4 5 9 11 11 11 11 11
10 10 10 10 9 9 7 6 4 4 4 4 3 4 5 6 5 4 4 4 3 2 2 2 1 1 1 1 1 2 2 3 5 5 5 5 4 5 8 11 11 11 12
10 10 10 9 10 10 8 5 4 4 4 4 4 4 5 6 6 5 4 3 4 3 3 3 2 2 2 2 2 2 2 3 4 5 6 6 6 6 5 7 10 11 13
9 9 10 9 9 8 6 4 3 3 4 4 4 5 6 6 7 6 4 4 4 3 3 3 2 2 2 2 2 1 1 3 3 4 6 6 6 7 7 7 6 7 12
8 9 10 9 8 7 5 5 5 5 4 4 5 6 7 7 7 6 5 5 5 4 5 5 3 3 2 2 1 1 2 2 4 4 5 5 6 7 7 7 6 6 6
10 10 10 10 9 8 6 5 3 3 3 4 4 5 7 7 7 7 7 6 6 4 5 5 4 3 2 3 3 1 2 3 3 4 4 5 6 5 7 8 7 7 6
10 10 10 9 8 8 6 4 2 2 1 2 3 4 6 7 7 7 7 6 6 6 5 6 6 6 4 3 2 3 3 3 2 2 3 4 4 5 6 6 8 8 8
9 8 8 8 7 7 7 6 6 5 5 5 4 4 5 7 7 7 7 7 6 5 6 6 6 4 4 3 3 2 2 3 2 2 2 2 4 5 6 6 6 7 8
7 7 7 7 7 7 7 8 7 6 5 3 3 5 5 5 6 6 6 7 7 6 6 6 6 6 5 4 4 3 2 1 2 2 3 2 2 3 4 5 5 5 6
5 6 6 6 6 6 7 7 8 7 6 5 5 5 5 3 4 5 6 6 7 6 6 6 6 7 6 5 4 4 4 3 4 4 4 3 3 2 2 3 4 5 5
Wind_Direction
148 148 138 129 122 116 113 111 110 110 110 111 111 110 110 109 109 108 106 105 104 103 104 104 104 106 106 106 107 108 109 110 110 110 110 110 109 109 108 106 106 107 109
142 146 140 133 126 121 117 115 113 112 112 112 112 112 111 110 109 108 107 107 106 105 106 106 105 105 105 106 107 108 110 111 112 112 111 111 111 110 110 110 109 111 111
136 140 140 136 130 125 122 120 118 116 116 115 114 114 113 112 111 110 109 108 107 107 107 107 106 106 107 108 109 110 109 110 111 109 105 103 109 111 112 113 113 113 113
136 136 141 139 134 130 126 124 122 120 119 118 117 116 115 113 112 111 110 109 109 108 108 109 108 108 109 109 110 110 109 109 109 106 98 103 109 113 113 113 113 115 114
132 134 148 142 138 134 130 127 126 125 124 123 122 120 119 117 115 113 112 110 110 110 110 110 110 111 112 112 112 112 111 110 107 100 94 95 102 116 115 115 115 115 115
131 136 151 145 142 139 136 133 131 129 129 128 127 125 123 121 119 117 115 113 112 111 111 112 113 114 115 115 115 115 115 113 104 99 97 102 109 119 120 118 117 115 117
135 140 150 148 147 145 142 139 137 135 134 133 132 129 127 126 124 120 119 116 115 113 113 114 115 117 119 118 117 117 118 119 111 108 105 108 115 121 122 121 120 120 119
140 139 148 153 152 150 147 144 142 141 139 138 136 134 132 129 127 125 122 120 118 117 116 116 115 116 119 120 121 122 124 125 122 120 115 117 125 125 125 124 125 124 122
136 136 144 152 155 155 152 149 148 147 144 142 141 139 139 135 131 130 126 124 122 121 121 120 118 117 118 120 124 127 129 129 124 128 131 127 133 134 133 132 131 129 127
133 137 141 141 143 147 153 156 155 154 151 149 149 147 148 144 141 135 129 129 127 127 126 124 121 118 118 120 125 131 132 125 128 132 130 142 143 143 142 141 139 137 134
155 148 145 142 140 140 152 165 161 160 160 157 156 155 144 117 119 129 139 139 136 134 130 127 124 120 114 115 123 129 126 124 135 135 140 155 156 155 152 150 147 144 142
173 171 162 155 152 152 166 150 143 147 146 138 128 125 112 110 124 132 154 150 144 140 133 128 123 112 96 88 111 117 120 142 145 151 165 169 168 167 162 161 159 156 153
174 176 172 165 161 162 152 140 131 122 125 130 131 126 122 114 113 107 106 130 126 128 102 106 97 93 101 108 110 126 144 154 162 170 179 181 180 178 174 172 170 168 167
174 182 175 172 169 170 159 152 143 140 143 149 150 145 137 135 137 132 128 114 102 99 103 94 96 108 116 133 148 158 166 172 175 177 191 192 190 190 185 182 182 180 179
183 186 181 178 179 174 168 170 165 166 168 167 163 164 162 162 169 165 161 146 138 122 124 122 121 129 135 157 182 183 188 188 186 188 198 203 200 200 196 193 193 193 191
188 188 183 186 183 176 179 179 173 176 173 173 180 183 178 177 179 176 183 186 186 165 152 150 157 154 157 178 206 199 200 194 194 198 206 213 211 207 206 203 202 204 202
189 187 186 189 184 183 186 188 181 178 177 186 192 192 189 186 184 183 189 202 204 180 163 151 155 141 186 209 220 215 206 202 202 206 208 214 221 218 214 213 210 211 212
185 187 190 193 188 191 190 188 183 182 186 195 197 197 199 195 189 187 195 208 198 177 170 170 174 179 208 214 226 227 210 204 213 213 212 216 217 222 225 224 220 218 220
187 186 188 193 189 192 191 186 190 189 195 197 193 201 206 201 196 195 201 207 189 183 182 195 179 183 203 217 231 232 226 221 220 221 221 222 220 221 224 231 232 226 227
188 186 189 192 189 184 180 175 183 199 205 199 200 206 200 199 196 194 202 203 188 184 188 188 184 185 195 203 236 256 253 244 231 226 228 226 225 226 226 229 234 234 234
185 186 188 190 188 175 174 182 188 204 205 202 207 208 201 197 194 192 200 195 192 197 197 189 178 186 199 154 124 326 307 262 244 236 230 227 228 227 226 227 229 231 235
189 191 190 193 189 186 189 185 184 185 194 204 204 204 204 199 196 198 197 195 193 194 194 189 179 174 189 166 151 133 315 317 279 245 229 227 232 227 230 230 228 228 232
194 194 194 193 189 189 182 164 151 134 130 183 200 209 210 203 201 202 197 195 193 191 199 198 191 183 188 190 175 158 172 236 291 296 248 237 231 225 233 233 231 230 228
196 190 190 184 183 184 176 176 179 186 199 206 202 206 209 207 204 202 199 196 197 198 202 204 197 190 178 191 196 202 191 173 186 296 301 258 242 235 235 235 235 231 227
185 182 184 178 184 184 185 188 190 200 208 203 202 202 211 209 205 204 202 199 200 202 205 202 192 194 192 192 187 179 188 188 185 196 269 292 277 247 237 236 237 234 228
178 174 173 177 189 185 190 196 200 201 202 201 207 207 211 209 207 207 206 204 203 202 204 204 201 201 202 202 198 187 179 181 193 194 223 249 267 272 250 235 232 233 229